RH
69 69 70 70 66 63 64 64 65 66 63 59 58 58 57 58 59 57 54 52 52 53 54 53 53 55 53 47 45 46 43 39 35 33 36 38 34 30 27 24 25 26 28 29 27 28 30 29 29 28 25 28 29 30 33 33 38 46 51 52 50 49 50 49 47 42 33 28 27 25 22 20 21 23 23 23 23 24 25 22 17 12 10 9 7
66 65 67 71 72 70 69 69 74 82 78 66 61 63 61 60 60 59 56 55 55 56 57 56 54 56 53 46 47 48 42 40 38 33 33 36 33 27 19 16 21 26 26 28 29 27 25 25 28 27 23 22 25 27 29 30 34 39 44 47 47 49 50 45 38 32 27 25 25 22 21 21 21 23 23 22 23 24 25 25 21 16 14 15 13
71 67 64 68 76 80 80 79 79 84 85 75 65 66 67 63 61 61 59 56 54 54 56 55 52 52 51 48 48 47 42 39 37 33 30 30 29 26 19 12 13 19 24 28 29 26 24 24 26 23 19 21 24 27 27 28 31 33 38 45 47 47 44 37 30 26 24 24 23 21 21 21 22 23 23 24 26 27 26 27 26 22 19 21 21
67 62 59 63 71 76 79 79 75 75 81 82 74 68 69 69 66 62 58 55 52 50 50 50 48 47 50 51 48 47 44 40 36 33 30 24 20 19 18 13 10 14 23 28 26 24 25 25 24 20 19 22 26 27 24 24 27 30 34 38 39 37 34 31 27 25 24 23 22 22 23 23 24 25 26 27 27 28 28 29 30 29 27 26 27
58 55 56 60 65 67 69 72 71 69 73 81 84 79 74 72 71 65 58 53 52 49 47 48 47 47 51 51 48 47 45 43 39 35 29 19 12 11 12 11 12 16 20 22 21 21 22 23 22 21 22 25 27 27 24 23 24 25 26 28 29 28 28 28 25 24 25 23 22 25 26 26 28 27 28 30 29 29 32 32 32 34 33 31 30
54 55 57 62 64 64 65 66 69 72 72 75 84 87 83 78 74 68 61 56 55 53 50 49 47 49 53 50 48 49 48 45 41 35 28 18 10 10 11 10 14 17 16 19 20 19 20 22 20 19 22 26 26 24 24 25 24 22 23 24 25 25 26 27 25 25 27 26 25 27 27 28 30 29 30 31 31 31 32 33 34 33 33 33 34
51 53 56 62 65 65 65 64 64 68 72 74 78 83 87 87 84 78 69 61 59 57 55 54 49 49 54 51 47 50 50 47 42 33 24 18 12 10 11 11 13 15 15 19 20 18 20 20 15 13 16 21 23 21 21 25 24 22 23 24 24 24 25 26 26 27 29 28 29 29 30 31 31 31 32 31 33 33 32 34 35 32 30 30 34
50 51 53 57 63 67 69 68 64 65 72 77 77 79 84 88 90 89 80 68 63 61 59 59 53 49 51 51 49 51 52 48 42 32 23 19 14 11 11 13 14 13 15 16 17 18 19 15 10 10 11 16 21 20 19 24 25 24 25 26 26 25 25 26 27 28 29 30 31 31 32 33 32 33 33 30 32 33 32 34 35 33 29 27 29
51 51 50 52 57 62 66 68 68 68 72 76 79 82 83 84 88 92 87 74 65 64 63 62 59 53 50 50 51 52 53 49 40 31 25 19 14 11 12 15 16 18 18 15 16 19 16 10 9 9 8 10 15 18 20 24 25 26 26 27 27 26 27 28 29 30 30 31 32 33 33 33 33 34 33 30 32 34 30 31 34 33 31 29 29
58 56 55 54 54 56 59 64 68 70 72 73 77 82 83 80 79 83 86 80 69 65 65 64 64 62 54 51 53 54 53 47 36 29 26 19 14 14 15 15 18 22 21 16 16 17 12 8 8 7 5 7 9 14 21 24 26 27 27 27 28 27 28 28 29 30 31 31 32 32 33 33 34 35 31 29 34 35 30 30 33 32 31 31 33
69 68 65 62 60 58 58 60 65 69 73 75 77 80 82 81 77 75 79 83 76 68 67 65 67 67 60 55 57 56 51 44 33 28 27 21 15 14 15 16 18 21 19 16 16 15 9 7 7 5 6 7 6 10 18 23 26 27 27 27 27 27 28 27 28 29 29 29 30 30 30 31 31 33 32 31 34 35 31 30 32 32 32 32 34
67 71 71 70 67 66 65 64 64 66 70 74 77 79 80 81 81 77 74 78 79 75 75 74 70 68 63 57 59 58 51 42 33 29 28 24 18 14 14 16 17 18 20 18 19 19 14 8 7 5 5 7 7 8 12 18 23 25 25 25 25 25 25 25 26 26 25 25 26 25 26 27 27 29 30 31 33 33 31 32 33 32 33 33 34
56 61 69 73 72 72 74 71 69 68 69 70 73 77 79 79 81 83 79 76 78 79 80 78 73 67 62 57 60 61 53 43 35 32 30 28 22 15 15 17 16 18 21 20 20 21 17 10 7 6 5 7 7 8 9 13 17 19 19 19 19 20 22 24 24 23 22 22 22 21 23 24 25 26 27 29 31 29 29 32 32 33 34 34 34
52 53 58 62 65 71 78 78 76 73 71 70 70 72 76 76 77 81 82 79 80 82 80 76 72 68 63 57 59 62 57 46 39 34 32 31 27 20 18 18 18 20 21 20 20 20 17 12 8 5 6 7 7 8 9 10 12 13 13 11 11 13 16 21 23 22 21 22 21 21 22 24 24 23 24 27 28 26 27 29 29 32 35 34 31
51 50 49 50 51 57 66 74 77 78 76 75 74 73 74 74 74 78 82 82 82 84 82 79 76 73 68 61 58 61 59 50 43 39 36 35 31 26 22 19 19 21 21 17 16 15 13 12 9 6 5 7 7 8 8 10 11 12 10 8 7 7 8 13 19 20 21 22 21 21 23 24 24 23 23 25 26 25 28 28 27 28 30 30 29
45 43 43 43 43 44 50 57 64 71 77 79 81 81 79 77 77 79 82 83 82 82 83 83 82 80 76 68 61 62 62 56 48 43 41 39 35 30 26 23 20 20 19 15 11 10 10 10 9 6 5 6 7 7 7 9 11 12 10 7 7 7 5 7 10 12 15 18 20 22 23 23 23 23 22 22 23 24 26 25 24 26 28 28 31
39 38 39 40 39 37 40 44 47 51 59 68 79 85 85 83 82 81 83 83 82 81 82 84 85 83 79 74 68 64 65 63 57 51 47 45 40 35 30 28 25 22 19 15 11 9 9 8 8 7 6 5 6 7 7 8 10 11 11 7 6 6 5 5 6 6 8 10 13 17 21 21 22 24 23 20 18 19 21 22 23 26 28 28 28
35 35 38 40 39 35 33 36 38 39 43 51 62 71 78 83 85 86 85 84 82 80 79 81 85 86 84 82 79 75 71 68 64 62 58 54 48 41 34 31 32 31 26 19 13 10 9 8 8 7 6 6 5 6 7 7 9 13 12 8 7 6 5 6 6 5 6 6 6 10 13 14 16 20 20 16 14 19 24 23 23 26 28 27 25
34 34 36 37 36 34 31 30 34 39 45 49 49 51 56 66 77 84 85 84 84 84 82 81 83 87 88 87 86 85 82 76 71 69 68 64 58 51 40 35 39 42 36 27 19 13 10 9 9 8 7 7 6 5 5 5 7 10 10 10 12 9 6 6 6 5 6 6 5 6 7 7 8 11 13 11 12 22 27 23 22 26 27 26 24
30 32 33 29 30 33 32 30 31 36 44 51 50 47 48 51 61 73 82 84 83 83 87 87 84 84 88 90 90 91 89 86 80 77 75 70 64 59 52 47 46 47 44 38 30 21 13 10 10 8 7 8 6 6 5 4 5 6 8 15 19 15 9 7 6 6 6 6 6 6 6 6 6 7 8 8 13 25 27 21 22 25 25 24 25
28 32 32 28 30 34 34 32 33 34 39 46 46 46 48 49 51 59 71 80 82 80 85 91 92 89 88 89 92 94 93 90 87 83 81 77 69 64 63 62 57 51 48 46 41 32 22 14 11 9 8 8 8 7 5 5 5 4 6 14 19 16 10 7 6 6 6 5 5 5 6 6 6 8 8 8 15 24 24 20 22 24 23 24 26
28 31 32 30 33 36 35 33 32 32 35 40 40 40 43 45 46 50 55 65 76 81 84 89 94 96 94 92 92 95 94 92 90 88 85 81 75 70 68 70 68 59 51 49 47 42 33 24 17 13 9 8 8 8 7 5 5 4 5 8 12 12 9 6 6 7 8 8 9 10 11 11 10 11 10 9 14 18 17 17 23 24 23 25 27
26 26 27 28 30 32 32 30 29 29 33 37 38 39 39 40 43 47 47 51 61 73 81 86 89 93 97 97 94 93 92 91 92 91 88 84 81 77 71 69 70 65 57 52 50 46 41 35 27 19 13 9 9 9 8 7 6 5 5 6 7 8 7 6 9 13 14 15 16 16 17 18 18 17 16 16 18 17 14 14 19 23 23 25 26
24 23 23 25 26 28 28 26 26 27 31 35 36 37 40 43 45 46 46 47 51 59 71 81 85 88 93 96 95 93 92 91 93 93 91 88 86 83 76 71 70 69 62 56 52 48 45 43 37 29 20 14 10 10 9 8 7 6 5 5 5 7 6 6 12 17 17 17 17 17 17 19 20 20 21 22 22 20 16 12 12 16 21 24 26
23 23 23 24 24 25 25 25 25 25 27 31 32 32 35 40 44 47 48 49 49 51 58 68 77 82 87 92 94 93 90 91 94 94 92 91 90 88 83 78 74 72 66 59 56 52 49 47 44 39 32 23 15 11 11 10 9 8 7 6 5 6 5 6 13 18 16 16 16 16 16 18 19 19 19 20 21 18 15 11 9 11 14 17 20
24 24 24 24 25 24 25 27 28 27 26 27 28 30 33 35 39 45 50 51 51 50 50 55 64 72 79 86 91 91 89 90 94 96 95 93 91 90 88 83 79 74 67 61 59 57 54 51 49 46 41 34 24 16 12 11 11 10 9 8 6 6 5 9 16 18 14 14 14 15 17 17 17 17 17 17 17 14 11 9 9 8 9 10 11
24 24 24 24 24 24 25 26 26 26 26 26 27 31 35 36 36 40 47 50 51 50 48 49 54 61 70 78 85 90 91 90 91 95 98 96 93 91 90 88 83 76 68 63 62 62 58 54 51 50 47 43 38 27 17 13 12 11 10 9 9 7 6 12 19 17 13 14 15 14 16 16 14 15 15 13 13 10 7 9 9 9 9 9 9
26 26 26 25 24 24 24 24 23 23 24 26 27 29 33 36 36 37 42 49 53 53 51 47 46 50 59 68 75 83 90 90 88 91 95 95 95 93 92 91 88 81 72 68 68 70 68 62 58 55 51 49 46 38 26 18 15 13 12 10 10 9 8 14 21 18 14 15 16 14 15 16 14 11 9 11 13 11 10 14 16 14 13 13 12
28 27 27 27 27 27 26 25 24 23 23 25 25 26 32 39 41 39 38 43 48 52 50 45 42 43 48 56 64 73 81 85 86 88 91 94 96 96 91 90 90 86 80 75 73 76 77 74 71 68 63 57 51 45 36 26 20 17 15 12 11 10 9 13 19 19 16 17 17 14 15 16 14 9 8 14 18 15 14 20 21 17 17 19 18
29 27 26 28 29 29 28 27 27 26 25 27 28 29 33 39 42 42 42 43 44 44 42 40 41 41 41 45 53 63 72 77 79 82 86 90 95 96 94 92 93 92 89 84 78 77 78 79 78 79 76 70 60 50 42 33 24 21 19 17 15 13 10 11 14 17 17 18 18 16 16 17 14 9 11 19 20 15 17 22 21 17 18 21 21
31 27 24 24 25 25 27 29 30 29 30 33 35 33 32 33 35 39 42 43 42 40 38 36 37 40 41 40 42 51 64 72 74 75 79 87 93 96 96 96 96 97 97 92 84 78 78 79 78 78 79 78 69 58 49 40 30 23 20 20 18 17 14 12 12 13 15 18 20 19 18 19 15 10 14 21 21 16 18 22 20 19 21 22 20
31 27 24 24 25 27 30 32 31 31 33 36 35 32 31 32 32 32 31 31 33 37 38 34 33 37 42 41 38 42 53 64 69 72 77 84 90 95 98 98 98 99 99 94 87 80 79 80 79 77 78 79 74 65 58 52 43 32 24 21 20 20 19 17 17 17 15 16 20 22 21 20 18 14 16 22 23 20 20 21 20 21 24 23 21
27 26 26 29 31 33 34 34 33 32 32 32 32 32 32 31 29 26 23 22 24 29 33 33 31 32 38 41 40 39 43 51 59 67 73 78 84 90 95 96 97 99 99 95 91 86 82 81 81 81 79 77 75 71 68 65 59 48 36 27 22 21 21 20 22 24 23 19 21 26 24 22 20 19 20 23 25 25 24 22 22 23 25 25 24
27 30 32 33 35 35 35 35 36 35 35 34 32 31 30 29 28 27 25 24 24 25 28 31 32 32 34 38 41 41 41 44 51 60 67 73 80 87 91 93 95 98 99 96 95 92 87 83 82 82 80 76 73 71 69 67 63 58 51 40 31 25 23 23 24 27 27 24 24 28 28 25 23 23 24 25 27 27 27 26 25 25 27 27 26
32 35 36 35 35 35 35 34 35 37 39 38 34 31 30 31 31 30 29 28 26 24 23 27 31 33 34 37 41 42 41 43 50 56 62 68 74 82 87 90 91 93 94 94 95 96 93 87 82 81 81 78 75 71 68 65 62 61 59 53 43 34 28 26 25 26 27 27 27 28 29 28 26 25 26 27 27 28 29 28 27 28 28 28 27
36 36 36 35 34 34 33 33 33 35 36 35 36 38 40 39 36 33 31 30 29 27 24 23 25 28 32 37 42 44 44 46 49 54 59 64 68 74 79 83 87 89 90 90 92 94 96 93 87 84 82 81 79 75 71 67 64 64 65 63 55 46 38 32 27 26 26 27 28 28 28 29 28 27 27 27 28 28 30 30 29 29 29 28 28
39 36 35 35 35 34 33 31 31 31 31 33 36 41 43 44 43 41 37 33 31 29 28 26 24 23 30 41 50 54 54 52 51 54 59 63 65 68 71 76 82 87 90 89 90 92 94 94 93 91 87 83 80 76 72 70 70 71 72 71 66 60 53 45 36 30 26 26 28 28 28 28 29 28 28 28 28 28 30 31 30 30 30 29 28
39 39 39 39 38 36 36 34 32 31 33 35 38 39 41 42 44 45 44 42 38 32 30 29 27 25 30 42 52 57 57 55 53 55 58 60 63 66 68 70 76 82 87 89 90 91 92 92 95 94 90 86 83 78 73 71 72 75 77 77 75 71 66 59 51 42 34 28 27 28 28 28 29 29 29 29 28 28 30 31 31 31 31 30 28
38 40 41 41 42 42 42 40 39 37 37 38 39 39 40 41 42 43 44 47 46 42 36 33 30 29 33 39 44 48 53 55 54 53 53 56 63 68 69 69 72 76 81 86 89 90 91 92 94 94 92 89 86 81 76 73 74 76 78 79 79 77 72 65 60 54 45 37 33 31 29 28 28 29 30 29 29 28 29 31 31 31 31 30 28
36 38 39 40 43 45 47 46 43 40 39 39 39 39 40 42 42 43 42 43 46 48 45 39 34 32 34 37 39 42 47 52 53 54 54 56 62 68 70 69 70 72 76 82 86 89 90 91 93 95 95 94 91 87 82 78 74 74 76 76 76 75 73 69 65 61 53 44 38 36 34 31 29 29 29 29 29 28 28 30 31 31 30 30 28
36 37 38 39 40 42 44 46 46 44 41 40 40 40 41 41 43 45 44 43 44 47 47 45 40 36 36 37 38 38 41 46 52 55 54 53 55 61 67 69 69 69 72 76 81 87 88 89 91 93 95 96 95 93 90 84 75 70 70 70 69 70 72 72 70 66 59 50 44 40 38 35 33 30 29 28 28 28 27 28 30 30 31 31 29
37 37 38 39 39 39 40 42 44 45 44 43 41 41 42 42 44 46 48 47 47 47 48 48 46 42 39 38 37 35 37 45 55 62 63 58 54 55 61 68 70 68 67 69 74 80 84 86 89 90 92 95 96 95 93 90 82 73 70 69 67 68 71 72 70 67 62 56 50 45 42 39 36 33 30 28 28 28 27 27 28 30 32 33 31
39 39 40 40 39 40 40 41 42 44 46 46 45 44 43 44 46 48 50 51 51 50 50 52 50 47 42 39 38 37 37 43 55 65 69 66 58 53 59 70 77 75 71 68 69 72 76 81 86 89 90 91 94 95 95 93 87 80 75 72 69 69 70 71 69 67 64 61 57 53 48 43 39 36 32 29 28 27 27 27 28 30 33 35 33
40 40 40 41 41 42 45 47 48 48 48 48 49 48 47 48 49 50 52 52 52 53 55 56 56 55 52 46 41 40 42 47 57 65 70 71 65 58 59 69 80 85 83 77 72 70 71 75 83 90 93 91 91 93 95 95 92 87 82 77 72 71 71 72 72 70 67 64 63 59 53 47 42 37 33 30 29 28 29 30 31 32 35 36 34
40 40 43 45 47 49 51 53 54 53 52 52 52 53 53 53 53 54 56 55 54 55 58 58 58 60 61 55 48 47 50 56 64 72 75 74 70 64 63 70 80 87 90 86 78 73 70 72 78 86 93 94 92 91 93 95 95 91 86 81 76 72 71 72 75 75 71 68 65 63 58 52 46 41 36 33 31 32 34 35 35 35 35 35 34
41 44 47 51 53 55 56 57 58 58 58 57 56 56 56 56 58 60 61 60 58 57 60 61 60 62 64 63 57 53 53 58 66 76 81 78 69 64 67 75 82 88 93 93 86 78 73 71 73 78 86 93 94 92 90 93 96 95 91 85 80 75 73 73 76 77 76 72 69 67 63 57 51 45 40 37 36 37 38 39 38 38 36 33 32
44 46 51 54 57 58 58 59 60 61 62 61 60 60 59 58 61 64 64 63 62 62 63 65 65 65 67 69 64 58 57 64 72 79 82 79 70 64 65 73 82 92 98 99 94 86 79 74 73 74 80 89 95 94 92 92 94 96 95 92 87 83 80 79 78 78 78 77 75 71 67 62 56 49 45 41 39 39 40 40 40 39 37 34 32
45 48 52 55 58 58 59 60 62 65 65 65 64 64 63 62 64 66 66 66 66 67 68 69 69 68 69 72 69 64 64 73 82 84 82 78 75 71 69 73 84 95 100 99 98 95 89 83 78 76 78 85 94 98 96 93 92 94 96 96 93 90 88 85 82 80 80 80 79 76 70 66 60 54 48 44 41 40 40 40 40 39 37 35 33
45 48 51 53 57 58 60 62 66 69 70 70 70 70 69 69 69 69 69 69 70 71 71 73 73 71 71 74 74 69 67 74 85 90 86 82 82 81 76 74 82 92 97 98 99 99 96 91 85 80 77 81 89 96 99 98 95 95 96 97 95 93 91 89 86 83 81 81 82 81 76 70 65 60 54 47 43 41 40 40 39 38 37 36 35
46 48 49 51 54 57 61 66 71 74 76 76 75 74 75 75 75 75 74 73 73 73 74 75 76 75 75 77 77 73 68 70 81 91 91 86 87 89 87 86 91 97 99 99 100 99 97 95 91 85 80 79 83 90 97 100 99 98 98 98 98 96 94 91 90 90 87 83 82 83 82 77 72 67 60 53 46 42 40 41 40 39 38 37 36
46 48 49 49 51 54 60 68 75 78 79 79 78 78 77 78 79 80 80 78 78 78 78 79 80 80 79 79 80 77 70 66 73 86 93 91 91 93 95 96 99 101 100 100 101 100 99 98 95 90 84 81 80 84 90 95 98 98 99 99 98 98 97 95 93 94 93 88 84 83 84 82 80 77 70 62 53 46 42 41 41 40 38 37 37